Valdosta, GA

8:57 AM EDT on May 25, 2017 (GMT -0400)
Moody Air Force Base

Weather History for KVAD - March, 2013

Change the Weather History Date:

Monday, March 11, 2013

  Actual Average Record
Temperature  
Mean Temperature 63 °F -  
Max Temperature 75 °F 69 °F 85 °F (2015)
Min Temperature 52 °F 48 °F 30 °F (1998)
Degree Days  
Heating Degree Days 2    
Growing Degree Days 13 (Base 50)    
Moisture  
Dew Point 55 °F    
Average Humidity 75    
Maximum Humidity 99    
Minimum Humidity 48    
Precipitation  
Precipitation 0.00 in - - ()
Sea Level Pressure  
Sea Level Pressure 29.97 in    
Wind  
Wind Speed 9 mph (SSE)    
Max Wind Speed 21 mph    
Max Gust Speed 26 mph    
Visibility 10 miles    
Events Rain    
Averages and records for this station are not official NWS values.
T = Trace of Precipitation, MM = Missing Value Source: NWS Daily Summary

Daily Weather History Graph

Daily Weather History Graph

Search for Another Location

Airport or City:

Trip Planner

Search our weather history database for the weather conditions in past years. The results will help you decide how hot, cold, wet, or windy it might be!

Date:

Astronomy

Mar. 11, 2013 Rise Set
Actual Time 7:47 AM EDT 7:38 PM EDT
Civil Twilight 7:23 AM EDT 8:02 PM EDT
Nautical Twilight 6:55 AM EDT 8:30 PM EDT
Astronomical Twilight 6:27 AM EDT 8:58 PM EDT
Moon 7:22 AM EDT (3/11) 7:45 PM EDT (3/11)
Length of Visible Light 12h 39m
Length of Day
11h 51m
Waning Crescent, 0% of the Moon is Illuminated
Mar 11
Waning Crescent
Mar 11
New
Mar 19
First Quarter
Mar 27
Full
Apr 3
Last Quarter

Hourly Weather History & Observations

Time (EDT) Temp. Dew Point Humidity Pressure Visibility Wind Dir Wind Speed Gust Speed Precip Events Conditions
12:58 AM 58.3 °F 51.4 °F 78% 30.13 in 10.0 mi ESE 4.6 mph - N/A   Clear
1:58 AM 56.3 °F 51.3 °F 83% 30.11 in 10.0 mi ESE 5.8 mph - N/A   Clear
2:58 AM 56.1 °F 52.0 °F 86% 30.10 in 10.0 mi ESE 5.8 mph - N/A   Clear
3:58 AM 54.1 °F 52.0 °F 92% 30.07 in 10.0 mi ESE 5.8 mph - N/A   Clear
4:58 AM 53.2 °F 52.5 °F 97% 30.05 in 10.0 mi ESE 5.8 mph - N/A   Clear
5:58 AM 52.9 °F 52.7 °F 99% 30.04 in 10.0 mi ESE 5.8 mph - N/A   Clear
6:58 AM 53.1 °F 52.7 °F 99% 30.04 in 10.0 mi ESE 6.9 mph - N/A   Clear
7:58 AM 52.7 °F 52.5 °F 99% 30.05 in 10.0 mi ESE 8.1 mph - N/A   Partly Cloudy
8:58 AM 56.1 °F 54.1 °F 93% 30.07 in 8.0 mi SSE 4.6 mph - N/A   Overcast
9:58 AM 59.5 °F 54.1 °F 82% 30.08 in 4.0 mi South 8.1 mph - N/A   Haze
10:58 AM 64.0 °F 54.1 °F 70% 30.08 in 10.0 mi South 11.5 mph - N/A   Mostly Cloudy
11:58 AM 66.7 °F 54.9 °F 66% 30.07 in 10.0 mi South 12.7 mph - N/A   Mostly Cloudy
12:58 PM 69.6 °F 55.4 °F 61% 30.04 in 10.0 mi South 15.0 mph - N/A   Scattered Clouds
1:42 PM 71.6 °F 55.4 °F 57% 30.00 in 10.0 mi SSW 16.1 mph - N/A   Mostly Cloudy
1:58 PM 71.8 °F 55.2 °F 56% 30.00 in 10.0 mi South 16.1 mph - N/A   Mostly Cloudy
2:58 PM 71.8 °F 55.4 °F 56% 29.96 in 10.0 mi SSE 15.0 mph - N/A   Mostly Cloudy
3:58 PM 74.7 °F 54.5 °F 49% 29.93 in 10.0 mi SSE 20.7 mph 25.3 mph N/A   Scattered Clouds
4:58 PM 73.8 °F 53.1 °F 48% 29.89 in 10.0 mi South 18.4 mph 26.5 mph N/A   Mostly Cloudy
5:58 PM 72.3 °F 54.3 °F 53% 29.90 in 10.0 mi South 16.1 mph - N/A   Mostly Cloudy
6:58 PM 70.7 °F 55.0 °F 58% 29.88 in 10.0 mi South 13.8 mph - N/A   Mostly Cloudy
7:58 PM 68.2 °F 55.4 °F 64% 29.89 in 10.0 mi South 9.2 mph - N/A   Mostly Cloudy
8:58 PM 67.6 °F 56.1 °F 67% 29.88 in 10.0 mi South 12.7 mph - N/A   Scattered Clouds
9:29 PM 68.0 °F 57.2 °F 68% 29.88 in 10.0 mi South 13.8 mph - N/A Rain Light Rain
9:58 PM 65.8 °F 58.1 °F 76% 29.89 in 10.0 mi South 13.8 mph - 0.00 in Rain Light Rain
10:04 PM 66.2 °F 57.2 °F 73% 29.87 in 10.0 mi South 12.7 mph - N/A   Scattered Clouds
10:07 PM 64.4 °F 59.0 °F 83% 29.88 in 10.0 mi South 11.5 mph - N/A Rain Light Rain
10:29 PM 64.4 °F 59.0 °F 83% 29.86 in 10.0 mi SSE 16.1 mph - N/A   Partly Cloudy
10:58 PM 64.4 °F 58.3 °F 80% 29.86 in 10.0 mi SSE 12.7 mph - 0.00 in   Scattered Clouds
11:39 PM 64.4 °F 59.0 °F 83% 29.84 in 10.0 mi South 13.8 mph 21.9 mph N/A Rain Light Rain
11:58 PM 63.1 °F 59.5 °F 88% 29.86 in 10.0 mi South 10.4 mph - 0.00 in Rain Light Rain